Zurück zum Katalog

NAVSTAR 65

USA 213

AktivNavigationHEO
NORAD 36585·PAYLOAD·🇺🇸 United States

Gestartet May 28, 2010 von Cape Canaveral Space Force Station

Loading…

Nächste Überflüge (nächste 24 Stunden)

TLE

AktuellSource: CelesTrak SupGP

Epoche: Sep 16, 2026, 16:44 UTC

1 36585C 10022A   26259.69756944  .00000000  00000+0  00000+0 0  2593
2 36585  54.2590 204.8776 0115777  55.7611 307.8552  2.00610262    11

Verfolge NAVSTAR 65 in Echtzeit mit AllMySat

Download on the App Store